Home > Weather > Resolute Bay > Past weeks

Flag for Canada Weather for the Past 2 Weeks in Resolute Bay, Nunavut, Canada

Now
14 °F

Passing clouds.


Feels Like: 0 °F
Forecast: N/A
Wind: 13 mph from Northeast

Location: Resolute

Current Time: May 2, 2016 at 6:34:56 PM

Latest Report: May 2, 2016 at 6:00 PM


Visibility: 15 mi

Pressure: 30.09 "Hg

Humidity: 73%

Dew Point: 7 °F

Location of Resolute BayLocation

Historic Weather in Resolute Bay — Graph

°F

Resolute Bay Temperature Yesterday

Maximum temperature yesterday: 9 °F (at 3:00 PM)
Minimum temperature yesterday: -9 °F (at 5:00 AM)
Average temperature yesterday: 1 °F

High & Low Weather Summary for the Past Weeks

 TemperatureHumidityPressure
High14 °F (May 2, 4:00 PM)85% (Apr 23, 8:00 PM)30.56 "Hg (Apr 23, 8:00 PM)
Low-20 °F (Apr 19, 5:00 AM)60% (Apr 20, 2:00 PM)29.99 "Hg (May 2, 2:00 AM)
Average-4 °F77%30.29 "Hg
* Reported Apr 17 4:00 PM — May 2 4:00 PM, Resolute Bay, Weather by CustomWeather, © 2016

Note: Actual official high and low records may vary slightly from our data, if they occured in-between our weather recording intervals... More about our weather records

Advertising

Resolute Bay Weather History for the Previous 24 Hours

Scroll right to see more
 ConditionsComfort  
Time TempWeatherWind HumidityBarometerVisibility
4:00 PM
Mon, May 2
14 °FPassing clouds.10 mph73%30.06 "Hg15 mi
3:00 PM12 °FPassing clouds.17 mph73%30.06 "Hg15 mi
2:00 PM12 °FPassing clouds.14 mph73%30.05 "Hg15 mi
1:00 PM10 °FPassing clouds.8 mph72%30.04 "Hg15 mi
12:00 PM9 °FScattered clouds.5 mph78%30.03 "Hg15 mi
11:00 AM5 °FScattered clouds.9 mph78%30.02 "Hg15 mi
10:00 AM5 °FPassing clouds.13 mph78%30.03 "Hg15 mi
9:00 AM0 °FPassing clouds.7 mph84%30.03 "Hg15 mi
8:00 AM5 °FPassing clouds.10 mph78%30.02 "Hg15 mi
7:00 AM7 °FSunny.12 mph72%30.02 "Hg15 mi
6:00 AM5 °FSunny.9 mph78%30.02 "Hg15 mi
5:00 AM3 °FSunny.20 mph78%30.00 "Hg15 mi
4:00 AM5 °FSunny.24 mph85%29.99 "Hg15 mi
3:00 AM1 °FSunny.15 mph85%30.00 "Hg15 mi
2:00 AM0 °FSunny.21 mph78%29.99 "Hg15 mi
1:00 AM3 °FSunny.10 mph85%30.01 "Hg15 mi
12:00 AM5 °FPassing clouds.8 mph78%30.01 "Hg15 mi
11:00 PM
Sun, May 1
5 °FPassing clouds.7 mph85%30.01 "Hg15 mi
10:00 PM7 °FPassing clouds.7 mph78%30.01 "Hg15 mi
9:00 PM7 °FPassing clouds.6 mph78%30.02 "Hg15 mi
8:00 PM7 °FPassing clouds.5 mph78%30.03 "Hg15 mi
7:00 PM9 °FSunny.3 mph72%30.04 "Hg15 mi
6:00 PM9 °FPassing clouds.2 mph78%30.04 "Hg15 mi
Weather by CustomWeather, © 2016

See weather overviewHow to use our weather pages